Skip Page Navigation
NASA JPL Caltech
NASA Logo - Jet Propulsion Laboratory + View the NASA Portal
+ Center for Near-Earth Object Studies
JPL Home Earth Solar System Stars & Galaxies Technology
JPL Solar System Dynamics
BODIES ORBITS EPHEMERIDES TOOLS PHYSICAL DATA DISCOVERY FAQ SITE MAP
JPL Small-Body Database Browser
Search: [ help ]  
413732 (2006 BX162)
Classification: Main-belt Asteroid          SPK-ID: 2413732
Ephemeris | Orbit Diagram | Orbital Elements | Mission Design | Physical Parameters | Discovery Circumstances | Close-Approach Data ]

[ show orbit diagram ]
Orbital Elements at Epoch 2459000.5 (2020-May-31.0) TDB
Reference: JPL 13 (heliocentric ecliptic J2000)
 Element Value Uncertainty (1-sigma)   Units 
e .1000733622194997 7.2249e-08  
a 2.932614983437685 4.3889e-08 au
q 2.639138341949793 2.352e-07 au
i 11.21962570300886 8.0704e-06 deg
node 316.9929861645712 3.2948e-05 deg
peri 139.4299799424507 5.3778e-05 deg
M 341.4298613649175 4.2993e-05 deg
tp 2459095.122331700878
(2020-Sep-02.62233170)
0.00021995 TDB
period 1834.344916949777
5.02
4.1179e-05
1.127e-07
d
yr
n .1962553479847304 4.4057e-09 deg/d
Q 3.226091624925576 4.8282e-08 au
  Orbit Determination Parameters
   # obs. used (total)      149  
   data-arc span      5050 days (13.83 yr)  
   first obs. used      2006-01-07  
   last obs. used      2019-11-05  
   planetary ephem.      DE431  
   SB-pert. ephem.      SB431-N16  
   condition code      0  
   norm. resid. RMS      .53646  
   source      ORB  
   producer      Otto Matic  
   solution date      2019-Dec-05 01:20:55  

Additional Information
 Earth MOID = 1.66687 au 
 Jupiter MOID = 1.91218 au 
 T_jup = 3.240 
[ show covariance matrix ]

Ephemeris | Orbit Diagram | Orbital Elements | Mission Design | Physical Parameters | Discovery Circumstances | Close-Approach Data ]

Physical Parameter Table
Parameter Symbol Value Units Sigma Reference Notes
absolute magnitude H 16.6   n/a MPO455947  

413732 (2006 BX162)          Discovered 2006-Jan-07 by Mt. Lemmon Survey at Mount Lemmon
Reference: Last Updated: 2014-11-10

[ show close-approach data ]
Alternate Designations
 2006 BX162 = 2011 CM14 
Ephemeris | Orbit Diagram | Orbital Elements | Mission Design | Physical Parameters | Discovery Circumstances | Close-Approach Data ]
ABOUT SSD CREDITS/AWARDS PRIVACY/COPYRIGHT GLOSSARY LINKS
FirstGov 2020-Sep-26 00:22 UT
(server date/time)  
NASA Home Page
Site Manager:   Ryan S. Park
Webmaster  Alan B. Chamberlin